Regional Weather Roundup
Issued by NWS

Home | Current Version | Previous Version | Text Only | Print | Product List | Glossary Off
Versions: 1 2 3 4 5 6 7 8 9 10 11 12 13 14 15 16 17 18 19 20 21 22 23 24 25 26 27 28 29 30 31 32 33 34 35 36 37 38 39 40 41 42 43 44 45 46 47 48 49 50

000
ASUS45 KPSR 252200
RWRAZ

PRELIMINARY ARIZONA REGIONAL HOURLY WEATHER ROUNDUP
NATIONAL WEATHER SERVICE PHOENIX AZ
300 PM MST THU DEC 25 2014

NOTE: FAIR INDICATES FEW OR NO CLOUDS BELOW 12,000 FEET WITH NO
SIGNIFICANT WEATHER AND/OR OBSTRUCTIONS TO VISIBILITY.

AZZ001>003-036-252300-
NORTHWEST ARIZONA

CITY           SKY/WX    TMP DP  RH WIND       PRES   REMARKS
KINGMAN        SUNNY     44   8  23 N21G30    29.77R
$$

AZZ004>008-015-016-018-252300-
NORTH CENTRAL ARIZONA

CITY           SKY/WX    TMP DP  RH WIND       PRES   REMARKS
GRAND CANYON   PTSUNNY   31  14  49 NW10G16   29.63R WCI  22
PRESCOTT       PTSUNNY   44  17  33 W18G26    29.67S
FLAGSTAFF      NOT AVBL
PAYSON         PTSUNNY   43  25  49 VRB7G14   29.70S
PAGE           CLOUDY    43  16  33 W10G18    29.62R
$$

AZZ009>014-017-252300-
NORTHEAST ARIZONA

CITY           SKY/WX    TMP DP  RH WIND       PRES   REMARKS
WINSLOW        NOT AVBL
SAINT JOHNS    CLOUDY    46  19  34 SW22G28   29.62R
WINDOW ROCK    LGT SNOW  31  28  89 SW7       29.61F VSB 3/4 WCI  24
SHOW LOW       LGT SNOW  34  19  55 SW26G36   29.67R WCI  21
$$

AZZ023-252300-
GREATER PHOENIX AREA

CITY           SKY/WX    TMP DP  RH WIND       PRES   REMARKS
PHOENIX        PTSUNNY   60  28  29 W10       29.70F
GLENDALE       PTSUNNY   61  30  31 S12       29.72F
LUKE AFB       MOSUNNY   60  29  30 SW15      29.70F
DEER VALLEY    PTSUNNY   58  23  26 SW13      29.70S
SCOTTSDALE     PTSUNNY   59  22  24 W8        29.72S
CHANDLER       PTSUNNY   59  27  29 SW18      29.72R
$$

AZZ027-028-252300-
SOUTHWEST MARICOPA COUNTY AND PINAL COUNTY

CITY           SKY/WX    TMP DP  RH WIND       PRES   REMARKS
CASA GRANDE    CLOUDY    59  27  29 W10G16    29.72S
$$

AZZ503-504-507>509-252300-
SOUTHEAST ARIZONA

CITY           SKY/WX    TMP DP  RH WIND       PRES   REMARKS
TUCSON         PTSUNNY   67  25  20 W17G23    29.70F
DAVIS-MONTHAN  PTSUNNY   65  25  22 W15G22    29.68S
RYAN FIELD       N/A     70  32  24 W20G25    29.70S
NOGALES        SUNNY     62  19  19 S23G35    29.75F
SIERRA VISTA   SUNNY     59  18  20 SW28G36   29.71F
SAFFORD        MOSUNNY   62  19  19 NW24G31   29.62F
$$

AZZ020-021-025-026-031-252300-
SOUTHWEST ARIZONA

CITY           SKY/WX    TMP DP  RH WIND       PRES   REMARKS
YUMA           NOT AVBL
$$

CAZ031-033-041-043-047-048-061-252300-
SOUTHERN CALIFORNIA

CITY           SKY/WX    TMP DP  RH WIND       PRES   REMARKS
DOWNTOWN L.A.  SUNNY     64  21  19 NW8       29.81F
L.A. AIRPORT   MOSUNNY   63  24  22 N14G22    29.83S
SAN DIEGO      MOSUNNY   68  32  26 W10       29.82S
BURBANK        SUNNY     62  22  21 N9        29.83F
ONTARIO        MOSUNNY   63  23  21 VRB5      29.80S
RIVERSIDE      SUNNY     61  13  15 NE15G29   29.81S
PALM SPRINGS   SUNNY     66   8  10 NE20      29.80R
EL CENTRO NAS  MOSUNNY   68  25  19 N15       29.76F
IMPERIAL       PTSUNNY   67  24  19 N15       29.76F
BLYTHE         SUNNY     63  12  13 NW24G33   29.78R
$$

NVZ020-UTZ003-252300-
SOUTHERN NEVADA-UTAH

CITY           SKY/WX    TMP DP  RH WIND       PRES   REMARKS
LAS VEGAS      NOT AVBL
SALT LAKE CITY LGT SNOW  29  27  92 NW6       29.71R VSB 1   WCI  23
$$

NMZ009-TXZ055-252300-
NEW MEXICO-WEST TEXAS

CITY           SKY/WX    TMP DP  RH WIND       PRES   REMARKS
ALBUQUERQUE    PTSUNNY   50  13  22 W8        29.61S
EL PASO        MOSUNNY   66  11  11 S5        29.69F
$$


........................KEY........................
SKY/WX - SKY CONDITION/WEATHER
TMP    - TEMPERATURE IN FAHRENHEIT
DP     - DEW POINT IN FAHRENHEIT
RH     - RELATIVE HUMIDITY IN PERCENT
WIND   - DIRECTION AND SPEED IN MILES PER HOUR (MPH)
VRB    - VARIABLE WIND DIRECTION
PRES   - MEAN SEA LEVEL PRESSURE IN INCHES OF MERCURY
         F - FALLING PRESSURE   R - RISING PRESSURE
         S - STEADY PRESSURE
VSB    - VISIBILITY IN MILES
HX     - HEAT INDEX IN FAHRENHEIT
WCI    - WIND CHILL INDEX IN FAHRENHEIT
TC     - TEMPERATURE IN CELSIUS WHICH IS ALSO KNOWN AS
         TEMPERATURE IN CENTIGRADE
AFB    - AIR FORCE BASE
         LUKE AFB IS LUKE AIR FORCE BASE
         DAVIS-MONTHAN IS DAVIS-MONTHAN AIR FORCE BASE
NAS    - NAVAL AIR STATION
         EL CENTRO NAS IS EL CENTRO NAVAL AIR STATION
N/A    - NOT AVAILABLE



USA.gov is the U.S. government's official web portal to all federal, state and local government web resources and services.